Location: Rounton
(54.4000°N, 1.3500°W)
Time: 17:58:12
(UTC+01:00)

FENGYUN 1C DEB - Pass Details

Date: 26 June 2022
Orbit: 737 x 860 km, 99.3° (Epoch: 10 August)

Event Time Altitude Azimuth Distance (km) Brightness Sun altitude
Exits shadow 23:17:05 - 195° (SSW) 2,977 ? -8.7°
Reaches altitude 10° 23:18:59 10° 204° (SSW) 2,298 ? -8.8°
Maximum altitude 23:23:22 30° 265° (W) 1,346 ? -9.1°
Drops below altitude 10° 23:27:43 10° 326° (NW) 2,268 ? -9.3°
Sets 23:30:16 0° 337° (NNW) 3,189 ? -9.5°
